Flag for Netherlands Weather past 2 weeks in Kralendijk (Bonaire), Netherlands

Now
88 °F

Scattered clouds.


Feels Like: 98 °F
Forecast: N/A
Wind: 14 mph from East

Location: Flamingo Airport - Bonaire

Current Time: Aug 20, 2014 at 4:44:05 PM

Latest Report: Aug 20, 2014 at 4:00 PM


Visibility: N/A

Pressure: 29.86 "Hg

Humidity: 66%

Dew point: 75 °F

Location of Kralendijk (Bonaire)Location

Historic Weather in Kralendijk (Bonaire) — Graph

°F

Kralendijk (Bonaire) temperature yesterday

Maximum temperature yesterday: 90 °F (at 1:00 PM)
Minimum temperature yesterday: 79 °F (at 5:55 AM)
Average temperature yesterday: 85 °F

Past Weeks' High & Low Weather Summary

 TemperatureHumidityPressure
High90 °F (Aug 6, 1:00 PM)94% (Aug 16, 10:00 AM)29.98 "Hg (Aug 16, 10:00 AM)
Low77 °F (Aug 16, 8:00 AM)59% (Aug 6, 3:00 PM)29.83 "Hg (Aug 6, 5:00 PM)
Average84 °F75%29.92 "Hg
* Reported Aug 5 3:00 PM — Aug 20 3:00 PM, Kralendijk (Bonaire), Weather by CustomWeather, © 2014

Note: Actual official high and low records may vary slightly from our data, if they occured in-between our weather recording intervals... More about our weather records

Advertising

Kralendijk (Bonaire) weather history for previous 24 hours

 ConditionsComfort  
Time TempWeatherWind HumidityBarometerVisibility
3:00 PM
Aug 20
88 °FScattered clouds.14 mph66%29.89 "HgN/A
2:00 PM88 °FScattered clouds.13 mph66%29.89 "HgN/A
1:00 PM88 °FScattered clouds.16 mph66%29.92 "HgN/A
12:00 PM88 °FScattered clouds.15 mph66%29.95 "HgN/A
11:00 AM86 °FWarm.14 mph70%29.95 "HgN/A
10:00 AM86 °FWarm.16 mph75%29.95 "HgN/A
9:00 AM84 °FWarm.14 mph79%29.95 "HgN/A
8:00 AM82 °FWarm.12 mph89%29.92 "HgN/A
7:00 AM81 °FPassing clouds.10 mph79%29.92 "HgN/A
6:00 AM82 °FWarm.13 mph79%29.89 "HgN/A
5:00 AM82 °FWarm.12 mph79%29.89 "HgN/A
4:00 AM82 °FPassing clouds.13 mph79%29.86 "HgN/A
3:00 AM82 °FWarm.12 mph84%29.89 "HgN/A
2:00 AM82 °FPassing clouds.10 mph79%29.89 "HgN/A
1:00 AM82 °FWarm.9 mph84%29.92 "HgN/A
12:00 AM82 °FWarm.9 mph79%29.92 "HgN/A
11:00 PM
Aug 19
82 °FWarm.12 mph79%29.95 "HgN/A
10:00 PM82 °FWarm.10 mph79%29.92 "HgN/A
9:00 PM82 °FWarm.14 mph79%29.89 "HgN/A
8:00 PM82 °FWarm.13 mph79%29.86 "HgN/A
7:00 PM84 °FWarm.14 mph70%29.86 "HgN/A
6:00 PM86 °FScattered clouds.16 mph70%29.86 "HgN/A
5:00 PM88 °FScattered clouds.15 mph66%29.86 "HgN/A
4:00 PM86 °FScattered clouds.16 mph70%29.86 "HgN/A
Weather by CustomWeather, © 2014

See weather overviewHow to use our weather pages